This is the latest recevied weather packets stored in our database for station/object HA6IFZ-10. If no packets are shown the sender has not sent any weather packets the latest 10 day(s).
| Time | Temp. | Humidity | Pressure | Rain* | Wind** | Luminosity | Snow |
|---|---|---|---|---|---|---|---|
| 1777623686 | 15° C | 23% | 1035.1 hPa | - | - | - | - |
| 1777622786 | 16.11° C | 23% | 1035.1 hPa | - | - | - | - |
| 1777621886 | 15° C | 22% | 1035.2 hPa | - | - | - | - |
| 1777620985 | 13.89° C | 24% | 1035.3 hPa | - | - | - | - |
| 1777620085 | 12.78° C | 25% | 1035.3 hPa | - | - | - | - |
| 1777619185 | 12.22° C | 25% | 1035.2 hPa | - | - | - | - |
| 1777618285 | 12.78° C | 26% | 1035.3 hPa | - | - | - | - |
| 1777617385 | 11.67° C | 30% | 1035.2 hPa | - | - | - | - |
| 1777616485 | 10.56° C | 43% | 1035.2 hPa | - | - | - | - |
| 1777615585 | 9.44° C | 47% | 1035.3 hPa | - | - | - | - |
| 1777614685 | 8.89° C | 48% | 1035.2 hPa | - | - | - | - |
| 1777613785 | 7.22° C | 52% | 1035.1 hPa | - | - | - | - |
| 1777573561 | 7.78° C | 40% | 1034.2 hPa | - | - | - | - |
| 1777572100 | 9.44° C | 35% | 1033.8 hPa | - | - | - | - |
| 1777555310 | 13.33° C | 22% | 1033.8 hPa | - | - | - | - |
| 1777554410 | 13.33° C | 22% | 1034 hPa | - | - | - | - |
| 1777552508 | 12.78° C | 23% | 1034 hPa | - | - | - | - |
| 1777551608 | 13.33° C | 23% | 1034.4 hPa | - | - | - | - |
| 1777545307 | 12.22° C | 26% | 1035.2 hPa | - | - | - | - |
| 1777544407 | 11.67° C | 25% | 1035.3 hPa | - | - | - | - |
| 1777543507 | 11.67° C | 25% | 1035.3 hPa | - | - | - | - |
| 1777541889 | 10.56° C | 28% | 1035.4 hPa | - | - | - | - |
| 1777540989 | 10.56° C | 28% | 1035.3 hPa | - | - | - | - |
| 1777540089 | 10° C | 30% | 1035.5 hPa | - | - | - | - |
| 1777537853 | 9.44° C | 32% | 1035.6 hPa | - | - | - | - |
* Rain since midnight (hover to see other rain measurements)
** Current wind speed in m/s (hover to see current wind gust speed)